Time,TemperatureF,DewpointF,PressureIn,WindDirection,WindDirectionDegrees,WindSpeedMPH,WindSpeedGustMPH,Humidity,HourlyPrecipIn,Conditions,Clouds,dailyrainin,SolarRadiationWatts/m^2,SoftwareType,DateUTC
2013-08-29 00:05:00,78.0,62.0,-100.00,SE,130,3.0,7.0,57,0.00,,,0.00,0.000000,,2013-08-29 05:05:00,
2013-08-29 00:42:00,76.0,63.0,-100.00,ESE,103,4.0,5.0,65,0.00,,,0.00,0.000000,,2013-08-29 05:42:00,
2013-08-29 00:52:00,76.0,63.0,-100.00,ESE,103,4.0,5.0,65,0.00,,,0.00,0.000000,,2013-08-29 05:52:00,
2013-08-29 01:02:00,76.0,63.0,-100.00,ESE,103,4.0,5.0,65,0.00,,,0.00,0.000000,,2013-08-29 06:02:00,
2013-08-29 01:43:00,74.0,63.0,-100.00,SSE,157,2.0,5.0,69,0.00,,,0.00,0.000000,,2013-08-29 06:43:00,
2013-08-29 01:52:00,74.0,63.0,-100.00,SSE,157,2.0,5.0,69,0.00,,,0.00,0.000000,,2013-08-29 06:52:00,
2013-08-29 02:01:00,74.0,63.0,-100.00,SSE,157,2.0,5.0,69,0.00,,,0.00,0.000000,,2013-08-29 07:01:00,
2013-08-29 02:42:00,73.0,64.0,-100.00,SE,138,4.0,6.0,74,0.00,,,0.00,0.000000,,2013-08-29 07:42:00,
2013-08-29 02:53:00,73.0,64.0,-100.00,SE,138,4.0,6.0,74,0.00,,,0.00,0.000000,,2013-08-29 07:53:00,
2013-08-29 03:02:00,73.0,64.0,-100.00,SE,138,4.0,6.0,74,0.00,,,0.00,0.000000,,2013-08-29 08:02:00,
2013-08-29 03:42:00,73.0,63.0,-100.00,SE,144,3.0,6.0,72,0.00,,,0.00,0.000000,,2013-08-29 08:42:00,
2013-08-29 03:52:00,73.0,63.0,-100.00,SE,144,3.0,6.0,72,0.00,,,0.00,0.000000,,2013-08-29 08:52:00,
2013-08-29 04:01:00,73.0,63.0,-100.00,SE,144,3.0,6.0,72,0.00,,,0.00,0.000000,,2013-08-29 09:01:00,
2013-08-29 04:43:00,74.0,65.0,-100.00,SE,140,4.0,7.0,73,0.00,,,0.00,0.000000,,2013-08-29 09:43:00,
2013-08-29 04:55:00,74.0,65.0,-100.00,SE,140,4.0,7.0,73,0.00,,,0.00,0.000000,,2013-08-29 09:55:00,
2013-08-29 05:06:00,74.0,65.0,-100.00,SE,140,4.0,7.0,73,0.00,,,0.00,0.000000,,2013-08-29 10:06:00,
2013-08-29 05:43:00,73.0,62.0,-100.00,SSW,202,1.0,7.0,69,0.00,,,0.00,0.000000,,2013-08-29 10:43:00,
2013-08-29 05:53:00,73.0,62.0,-100.00,SSW,202,1.0,7.0,69,0.00,,,0.00,0.000000,,2013-08-29 10:53:00,
2013-08-29 06:03:00,73.0,62.0,-100.00,SSW,202,1.0,7.0,69,0.00,,,0.00,0.000000,,2013-08-29 11:03:00,
2013-08-29 06:42:00,73.0,63.0,-100.00,NW,307,1.0,4.0,70,0.00,,,0.00,0.000000,,2013-08-29 11:42:00,
2013-08-29 06:52:00,73.0,63.0,-100.00,NW,307,1.0,4.0,70,0.00,,,0.00,0.000000,,2013-08-29 11:52:00,
2013-08-29 07:02:00,73.0,63.0,-100.00,NW,307,1.0,4.0,70,0.00,,,0.00,0.000000,,2013-08-29 12:02:00,
2013-08-29 07:42:00,71.0,62.0,-100.00,ESE,103,0.0,4.0,74,0.00,,,0.00,0.000000,,2013-08-29 12:42:00,
2013-08-29 07:52:00,71.0,62.0,-100.00,ESE,103,0.0,4.0,74,0.00,,,0.00,0.000000,,2013-08-29 12:52:00,
2013-08-29 08:02:00,71.0,62.0,-100.00,ESE,103,0.0,4.0,74,0.00,,,0.00,0.000000,,2013-08-29 13:02:00,
2013-08-29 08:42:00,74.0,69.0,-100.00,WNW,290,0.0,4.0,85,0.00,,,0.00,48.000000,,2013-08-29 13:42:00,
2013-08-29 08:52:00,74.0,69.0,-100.00,WNW,290,0.0,4.0,85,0.00,,,0.00,48.000000,,2013-08-29 13:52:00,
2013-08-29 09:02:00,74.0,69.0,-100.00,WNW,290,0.0,4.0,85,0.00,,,0.00,48.000000,,2013-08-29 14:02:00,
2013-08-29 09:42:00,78.0,67.0,-100.00,WSW,251,3.0,6.0,70,0.00,,,0.00,245.000000,,2013-08-29 14:42:00,
2013-08-29 09:52:00,78.0,67.0,-100.00,WSW,251,3.0,6.0,70,0.00,,,0.00,245.000000,,2013-08-29 14:52:00,
2013-08-29 10:02:00,78.0,67.0,-100.00,WSW,251,3.0,6.0,70,0.00,,,0.00,245.000000,,2013-08-29 15:02:00,
2013-08-29 10:43:00,83.0,69.0,-100.00,South,188,6.0,9.0,63,0.00,,,0.00,483.000000,,2013-08-29 15:43:00,
2013-08-29 10:53:00,83.0,69.0,-100.00,South,188,6.0,9.0,63,0.00,,,0.00,483.000000,,2013-08-29 15:53:00,
2013-08-29 11:05:00,83.0,69.0,-100.00,South,188,6.0,9.0,63,0.00,,,0.00,483.000000,,2013-08-29 16:05:00,
2013-08-29 12:44:00,91.0,66.0,-100.00,South,177,9.0,14.0,44,-99.99,,,0.00,866.000000,,2013-08-29 17:44:00,
2013-08-29 12:53:00,91.0,66.0,-100.00,South,177,9.0,14.0,44,-99.99,,,0.00,866.000000,,2013-08-29 17:53:00,
2013-08-29 13:02:00,91.0,66.0,-100.00,South,177,9.0,14.0,44,-99.99,,,0.00,866.000000,,2013-08-29 18:02:00,
2013-08-29 13:42:00,91.0,63.0,-100.00,SE,133,8.0,17.0,39,0.00,,,0.00,799.000000,,2013-08-29 18:42:00,
2013-08-29 13:52:00,91.0,63.0,-100.00,SE,133,8.0,17.0,39,0.00,,,0.00,799.000000,,2013-08-29 18:52:00,
2013-08-29 14:01:00,91.0,63.0,-100.00,SE,133,8.0,17.0,39,0.00,,,0.00,799.000000,,2013-08-29 19:01:00,
2013-08-29 15:42:00,95.0,62.0,-100.00,SSE,149,8.0,15.0,34,-99.99,,,0.00,997.000000,,2013-08-29 20:42:00,
2013-08-29 15:52:00,95.0,62.0,-100.00,SSE,149,8.0,15.0,34,-99.99,,,0.00,997.000000,,2013-08-29 20:52:00,
2013-08-29 16:01:00,95.0,62.0,-100.00,SSE,149,8.0,15.0,34,-99.99,,,0.00,997.000000,,2013-08-29 21:01:00,
2013-08-29 16:44:00,95.0,60.0,-100.00,South,173,8.0,15.0,32,0.00,,,0.00,943.000000,,2013-08-29 21:44:00,
2013-08-29 16:54:00,95.0,60.0,-100.00,South,173,8.0,15.0,32,0.00,,,0.00,943.000000,,2013-08-29 21:54:00,
2013-08-29 17:04:00,95.0,60.0,-100.00,South,173,8.0,15.0,32,0.00,,,0.00,943.000000,,2013-08-29 22:04:00,
2013-08-29 17:43:00,95.0,59.0,-100.00,SE,129,8.0,15.0,30,0.00,,,0.00,722.000000,,2013-08-29 22:43:00,
2013-08-29 17:53:00,95.0,59.0,-100.00,SE,129,8.0,15.0,30,0.00,,,0.00,722.000000,,2013-08-29 22:53:00,
2013-08-29 18:03:00,95.0,59.0,-100.00,SE,129,8.0,15.0,30,0.00,,,0.00,722.000000,,2013-08-29 23:03:00,
2013-08-29 18:43:00,95.0,59.0,-100.00,SSE,159,6.0,13.0,30,0.00,,,0.00,506.000000,,2013-08-29 23:43:00,
2013-08-29 18:53:00,95.0,59.0,-100.00,SSE,159,6.0,13.0,30,0.00,,,0.00,506.000000,,2013-08-29 23:53:00,
2013-08-29 19:02:00,95.0,59.0,-100.00,SSE,159,6.0,13.0,30,0.00,,,0.00,506.000000,,2013-08-30 00:02:00,
2013-08-29 19:42:00,94.0,59.0,-100.00,SSE,156,3.0,12.0,31,0.00,,,0.00,255.000000,,2013-08-30 00:42:00,
2013-08-29 19:52:00,94.0,59.0,-100.00,SSE,156,3.0,12.0,31,0.00,,,0.00,255.000000,,2013-08-30 00:52:00,
2013-08-29 20:01:00,94.0,59.0,-100.00,SSE,156,3.0,12.0,31,0.00,,,0.00,255.000000,,2013-08-30 01:01:00,
2013-08-29 20:42:00,89.0,59.0,-100.00,SSE,154,3.0,6.0,36,0.00,,,0.00,54.000000,,2013-08-30 01:42:00,
2013-08-29 20:52:00,89.0,59.0,-100.00,SSE,154,3.0,6.0,36,0.00,,,0.00,54.000000,,2013-08-30 01:52:00,
2013-08-29 21:02:00,89.0,59.0,-100.00,SSE,154,3.0,6.0,36,0.00,,,0.00,54.000000,,2013-08-30 02:02:00,
2013-08-29 21:42:00,85.0,59.0,-100.00,SSE,166,0.0,3.0,41,0.00,,,0.00,0.000000,,2013-08-30 02:42:00,
2013-08-29 21:52:00,85.0,59.0,-100.00,SSE,166,0.0,3.0,41,0.00,,,0.00,0.000000,,2013-08-30 02:52:00,
2013-08-29 22:02:00,85.0,59.0,-100.00,SSE,166,0.0,3.0,41,0.00,,,0.00,0.000000,,2013-08-30 03:02:00,
2013-08-29 22:43:00,85.0,60.0,-100.00,ESE,105,0.0,0.0,43,0.00,,,0.00,0.000000,,2013-08-30 03:43:00,
2013-08-29 22:55:00,85.0,60.0,-100.00,ESE,105,0.0,0.0,43,0.00,,,0.00,0.000000,,2013-08-30 03:55:00,
2013-08-29 23:04:00,85.0,60.0,-100.00,ESE,105,0.0,0.0,43,0.00,,,0.00,0.000000,,2013-08-30 04:04:00,
2013-08-29 23:44:00,80.0,61.0,-100.00,SSW,209,2.0,3.0,52,0.00,,,0.00,0.000000,,2013-08-30 04:44:00,
2013-08-29 23:54:00,80.0,61.0,-100.00,SSW,209,2.0,3.0,52,0.00,,,0.00,0.000000,,2013-08-30 04:54:00,